Regional Weather Roundup
Issued by NWS Albany, NY

Home | Current Version | Previous Version | Text Only | Print | Product List | Glossary On
Versions: 1 2 3 4 5 6 7 8 9 10 11 12 13 14 15 16 17 18 19 20 21 22 23 24 25 26 27
000
ASUS41 KALY 291210
RWRALY

NEW YORK STATE HOURLY WEATHER ROUNDUP
NATIONAL WEATHER SERVICE ALBANY NY
800 AM EDT THU SEP 29 2016

NOTE: "FAIR" INDICATES FEW OR NO CLOUDS BELOW 12,000 FEET WITH NO
SIGNIFICANT WEATHER AND/OR NO OBSTRUCTIONS TO VISIBILITY.

NYZ032-033-038>043-046>054-057>066-NYZ062>081-082-084-291300-
EAST


CITY           SKY/WX    TMP DP  RH WIND       PRES   REMARKS
ALBANY         MOSUNNY   53  47  79 NE7       30.42R
GLENS FALLS    PTSUNNY   54  46  74 NE7       30.43R
POUGHKEEPSIE   CLOUDY    57  47  69 NE7       30.36R
NEWBURGH       CLOUDY    57  50  77 E8        30.37R
MONTGOMERY     CLOUDY    57  49  74 VRB7      30.36R
WHITE PLAINS   CLOUDY    57  49  74 NE10      30.33R
ISLIP          CLOUDY    60  55  83 NE13G22   30.32R
NEW YORK CITY  CLOUDY    62  54  74 NE26G33   30.32R
CENTRAL PARK   CLOUDY    60  52  74 E15G25    30.35R
$$

NYZ005>009-017-018-044>046-055-056-291300-
CENTRAL


CITY           SKY/WX    TMP DP  RH WIND       PRES   REMARKS
FULTON         CLOUDY    56  46  69 VRB7      30.33R
SYRACUSE       CLOUDY    54  47  77 E10       30.32R
ROME           CLOUDY    54  47  77 E10       30.38R
ELMIRA         LGT RAIN  57  52  83 E8        30.26R
BINGHAMTON     LGT RAIN  51  50  96 E9        30.29S
MONTICELLO     CLOUDY    52  45  76 E15       30.35S
$$

NYZ026>034-041>043-087-291300-
NORTH


CITY           SKY/WX    TMP DP  RH WIND       PRES   REMARKS
WATERTOWN      CLOUDY    50  46  86 NE9       30.37R
FORT DRUM      NOT AVBL
OGDENSBURG     CLOUDY    50  48  93 E9G16     30.45R
MASSENA        PTSUNNY   49  45  86 E13       30.47R
SARANAC LAKE   PTSUNNY   46  43  89 NE5       30.42R
PLATTSBURGH    MOSUNNY   52  49  89 N6        30.47R
$$

NYZ001>004-010>016-019>021-085-291300-
WEST


CITY           SKY/WX    TMP DP  RH WIND       PRES   REMARKS
NIAGARA FALLS  LGT RAIN  58  53  84 E9        30.23R
BUFFALO        CLOUDY    58  54  86 E10       30.23R
DUNKIRK        CLOUDY    60  53  77 NE9       30.18R
JAMESTOWN      MOCLDY    55  52  88 SE8       30.17R
WELLSVILLE     CLOUDY    53  51  93 SE9       30.25R
ROCHESTER      LGT RAIN  54  53  97 E10       30.29R FOG
PENN YAN       LGT RAIN  54  52  93 VRB3      30.29R
$$

             KEY
       WCI = WIND CHILL INDEX
       VSB = VISIBILITY
       HX  = HEAT INDEX
$$




USA.gov is the U.S. government's official web portal to all federal, state and local government web resources and services.